Location: Isle of Man Observatory
(54.1776°N, 4.6264°W)
Time: 13:26:39
(UTC+01:00)

Envisat - Visible Passes

Search period start: 23 March 2017 00:00
Search period end: 02 April 2017 01:00
Orbit: 764 x 766 km, 98.2° (Epoch: 21 March)

Date Brightness Start Highest point End Pass type
(mag) Time Alt. Az. Time Alt. Az. Time Alt. Az.
23 Mar 3.6 20:15:57 10° SE 20:20:37 39° ENE 20:25:19 10° N visible
23 Mar 4.2 21:54:52 10° SSW 21:59:39 41° W 22:04:28 10° NNW visible
24 Mar 3.1 21:17:43 10° S 21:22:48 77° WSW 21:27:55 10° NNW visible
24 Mar 5.6 23:00:02 10° WSW 23:02:42 14° W 23:05:23 10° NW visible
25 Mar 3.1 20:41:09 10° SE 20:46:08 58° ENE 20:51:08 10° N visible
25 Mar 4.9 22:21:15 10° SSW 22:25:30 26° W 22:29:48 10° NW visible
26 Mar 3.8 22:43:36 10° S 22:48:31 49° W 22:53:28 10° NNW visible
27 Mar 3.0 22:06:37 10° SSE 22:11:43 89° ENE 22:16:51 10° NNW visible
27 Mar 5.5 23:48:11 10° SW 23:51:28 17° W 23:54:47 10° NW visible
28 Mar 3.3 21:30:14 10° SE 21:35:06 49° ENE 21:40:01 10° N visible
28 Mar 4.6 23:09:50 10° SSW 23:14:21 32° W 23:18:53 10° NNW visible
29 Mar 3.5 22:32:23 10° S 22:37:24 59° WSW 22:42:27 10° NNW visible
30 Mar 5.9 00:16:31 10° W 00:17:33 11° W 00:18:34 10° WNW visible
30 Mar 3.0 21:55:36 10° SSE 22:00:40 75° ENE 22:05:46 10° NNW visible
30 Mar 5.3 23:36:29 10° SW 23:40:15 21° W 23:44:03 10° NW visible
31 Mar 3.5 21:19:21 10° SE 21:24:06 41° ENE 21:28:52 10° N visible
31 Mar 4.3 22:58:28 10° SSW 23:03:11 38° W 23:07:56 10° NNW visible
01 Apr 3.2 22:21:15 10° S 22:26:19 72° WSW 22:31:25 10° NNW visible
02 Apr 5.7 00:03:57 10° WSW 00:06:17 13° W 00:08:38 10° NW visible
